Tracking 22283 objects as of 27-Jan-2021
HD Live streaming from Space Station
objects crossing your sky now

METEOR 2-8 DEB

Track METEOR 2-8 DEB now!
10-day predictions


NORAD ID: 36329
Int'l Code: 1982-025P
Perigee: 830.5 km
Apogee: 859.3 km
Inclination: 82.5 °
Period: 101.7 minutes
Semi major axis: 7215 km
RCS: 0.0072 m2 (small)
Launch date: March 25, 1982
Source: Commonwealth of Independent States (former USSR) (CIS)
Launch site: PLESETSK MISSILE AND SPACE COMPLEX (PKMTR)

Note: This is SATELLITE DEBRIS
aabbcc
Your satellite tracking list
Your tracking list is empty




NASA's NSSDC Master Catalog

Two Line Element Set (TLE):
1 36329U 82025P   21017.74619369  .00000860  00000-0  42460-3 0  9999
2 36329  82.5091  18.3066 0019906  80.8972 279.4457 14.16335446343424
Source of the keplerian elements: AFSPC